San Angelo, TX

9:26 AM CDT on October 23, 2017 (GMT -0500)
San Angelo Regional-Mathis

Weather History for KSJT - November, 2014

Change the Weather History Date:

Wednesday, November 5, 2014

  Actual Average Record
Temperature  
Mean Temperature 52 °F 60 °F  
Max Temperature 54 °F 72 °F 91 °F (2007)
Min Temperature 50 °F 47 °F 26 °F (1970)
Degree Days  
Heating Degree Days 13 7  
Month to date heating degree days 29 31  
Since 1 July heating degree days 50 122  
Cooling Degree Days 0 1  
Month to date cooling degree days 6 6  
Year to date cooling degree days 2868 2490  
Growing Degree Days 2 (Base 50)    
Moisture  
Dew Point 50 °F    
Average Humidity 95    
Maximum Humidity 100    
Minimum Humidity 89    
Precipitation  
Precipitation 0.52 in 0.06 in 1.06 in (1978)
Month to date precipitation 3.00 0.28  
Year to date precipitation 16.31 19.54  
Snow  
Snow 0.00 in 0.00 in 0.00 in (2002)
Month to date snowfall 0.0 0.0  
Since 1 July snowfall 0.0 0.0  
Snow Depth 0.00 in    
Sea Level Pressure  
Sea Level Pressure 30.22 in    
Wind  
Wind Speed 6 mph (NNE)    
Max Wind Speed 13 mph    
Max Gust Speed 16 mph    
Visibility 10 miles    
Events Rain    
T = Trace of Precipitation, MM = Missing Value Source: NWS Daily Summary

Daily Weather History Graph

Daily Weather History Graph

Search for Another Location

Airport or City:

Trip Planner

Search our weather history database for the weather conditions in past years. The results will help you decide how hot, cold, wet, or windy it might be!

Date:

Astronomy

Nov. 05, 2014 Rise Set
Actual Time 7:01 AM CST 5:49 PM CST
Civil Twilight 6:35 AM CST 6:14 PM CST
Nautical Twilight 6:06 AM CST 6:43 PM CST
Astronomical Twilight 5:38 AM CST 7:12 PM CST
Moon 5:12 PM CST (11/5) 5:34 AM CST (11/5)
Length of Visible Light 11h 39m
Length of Day
10h 48m
Waxing Gibbous, 98% of the Moon is Illuminated
Nov 5
Waxing Gibbous
Nov 6
Full
Nov 14
Last Quarter
Nov 22
New
Nov 29
First Quarter

Hourly Weather History & Observations

Time (CST) Temp. Dew Point Humidity Pressure Visibility Wind Dir Wind Speed Gust Speed Precip Events Conditions
12:51 AM 53.1 °F 51.1 °F 93% 30.21 in 10.0 mi North 8.1 mph - 0.01 in Rain Light Rain
1:51 AM 52.0 °F 50.0 °F 93% 30.19 in 10.0 mi NNE 10.4 mph - 0.03 in Rain Light Rain
2:51 AM 51.1 °F 48.9 °F 92% 30.19 in 10.0 mi North 8.1 mph - 0.03 in Rain Light Rain
3:19 AM 50.0 °F 48.0 °F 93% 30.20 in 10.0 mi NNE 10.4 mph - 0.01 in Rain Light Rain
3:49 AM 50.0 °F 48.2 °F 94% 30.20 in 10.0 mi North 9.2 mph - 0.02 in Rain Light Rain
3:51 AM 50.0 °F 48.9 °F 96% 30.20 in 10.0 mi NNE 9.2 mph - 0.02 in Rain Light Rain
4:51 AM 50.0 °F 48.0 °F 93% 30.16 in 10.0 mi NNE 10.4 mph - 0.02 in Rain Light Rain
5:48 AM 50.0 °F 48.2 °F 94% 30.18 in 10.0 mi NNE 5.8 mph - 0.01 in Rain Light Rain
5:51 AM 50.0 °F 48.0 °F 93% 30.18 in 10.0 mi NNE 4.6 mph - 0.01 in Rain Light Rain
6:29 AM 50.0 °F 48.0 °F 93% 30.22 in 10.0 mi NNE 3.5 mph - 0.02 in Rain Light Rain
6:51 AM 50.0 °F 48.0 °F 93% 30.23 in 10.0 mi North 3.5 mph - 0.04 in Rain Light Rain
7:51 AM 50.0 °F 48.9 °F 96% 30.24 in 10.0 mi NNW 8.1 mph - 0.09 in Rain Light Rain
8:51 AM 51.1 °F 48.9 °F 92% 30.25 in 10.0 mi North 9.2 mph - 0.09 in Rain Rain
9:11 AM 50.0 °F 48.9 °F 96% 30.24 in 10.0 mi North 9.2 mph - 0.05 in Rain Light Rain
9:51 AM 51.1 °F 48.0 °F 89% 30.25 in 10.0 mi NNE 3.5 mph - 0.07 in Rain Light Rain
10:10 AM 51.1 °F 48.9 °F 92% 30.25 in 10.0 mi North 6.9 mph - 0.01 in Rain Light Rain
10:19 AM 51.1 °F 48.9 °F 92% 30.25 in 10.0 mi North 5.8 mph - 0.02 in Rain Light Rain
10:51 AM 52.0 °F 50.0 °F 93% 30.25 in 10.0 mi NE 3.5 mph - 0.03 in Rain Light Rain
11:24 AM 53.1 °F 51.1 °F 93% 30.25 in 10.0 mi North 6.9 mph - 0.00 in Rain Light Rain
11:38 AM 53.1 °F 51.1 °F 93% 30.24 in 10.0 mi NE 6.9 mph - 0.01 in Rain Light Rain
11:51 AM 54.0 °F 51.1 °F 90% 30.23 in 10.0 mi NE 6.9 mph - 0.01 in Rain Light Rain
12:19 PM 54.0 °F 51.1 °F 90% 30.23 in 10.0 mi NNE 8.1 mph - 0.00 in Rain Light Rain
12:26 PM 53.1 °F 51.1 °F 93% 30.23 in 10.0 mi NE 8.1 mph - 0.00 in Rain Light Rain
12:51 PM 54.0 °F 51.1 °F 90% 30.21 in 10.0 mi NE 5.8 mph - 0.01 in Rain Light Rain
12:59 PM 54.0 °F 52.0 °F 93% 30.21 in 10.0 mi NE 5.8 mph - 0.00 in Rain Light Rain
1:51 PM 54.0 °F 52.0 °F 93% 30.19 in 10.0 mi NNE 6.9 mph - 0.02 in Rain Light Rain
2:51 PM 54.0 °F 51.1 °F 90% 30.20 in 10.0 mi NNE 6.9 mph - 0.02 in Rain Light Rain
3:19 PM 54.0 °F 51.1 °F 90% 30.19 in 10.0 mi NNE 8.1 mph - 0.01 in Rain Light Rain
3:51 PM 53.1 °F 51.1 °F 93% 30.19 in 10.0 mi NNE 8.1 mph - 0.01 in Rain Light Rain
4:42 PM 54.0 °F 52.0 °F 93% 30.21 in 10.0 mi North 8.1 mph - 0.00 in   Overcast
4:51 PM 54.0 °F 52.0 °F 93% 30.21 in 10.0 mi NNE 10.4 mph - 0.00 in   Overcast
5:13 PM 54.0 °F 51.1 °F 90% 30.21 in 10.0 mi NNE 9.2 mph - 0.00 in Rain Light Rain
5:51 PM 53.1 °F 51.1 °F 93% 30.20 in 10.0 mi ENE 5.8 mph - 0.01 in Rain Light Rain
6:04 PM 53.1 °F 51.1 °F 93% 30.21 in 10.0 mi ENE 5.8 mph - 0.00 in Rain Light Rain
6:47 PM 53.6 °F 51.8 °F 94% 30.23 in 10.0 mi NE 6.9 mph - 0.00 in   Scattered Clouds
6:51 PM 53.1 °F 51.1 °F 93% 30.22 in 10.0 mi NE 8.1 mph - 0.00 in   Partly Cloudy
7:38 PM 53.1 °F 52.0 °F 96% 30.25 in 10.0 mi NE 3.5 mph - N/A   Overcast
7:51 PM 53.1 °F 52.0 °F 96% 30.25 in 10.0 mi NE 3.5 mph - N/A   Overcast
8:08 PM 53.1 °F 52.0 °F 96% 30.26 in 10.0 mi North 3.5 mph - 0.00 in Rain Light Rain
8:16 PM 54.0 °F 52.0 °F 93% 30.27 in 10.0 mi Calm Calm - 0.00 in   Overcast
8:51 PM 54.0 °F 52.0 °F 93% 30.28 in 10.0 mi WNW 5.8 mph - 0.00 in   Overcast
9:51 PM 54.0 °F 51.1 °F 90% 30.28 in 10.0 mi North 6.9 mph - N/A   Overcast
10:51 PM 52.0 °F 50.0 °F 93% 30.28 in 10.0 mi Calm Calm - N/A   Clear
11:51 PM 53.1 °F 51.1 °F 93% 30.27 in 10.0 mi Calm Calm - N/A   Overcast